Wind_Speed
5 5 5 5 5 5 5 5 6 6 5 4 3 3 3 3 4 4 5 5 5 5 5 6 6 6 7 8 9 10 11 12 12 13 13 13 13 12 12 11 11 11 11 12 11 10 9 9 9 11 13 14 16 16 16 14 12 11 12 13 14 15 15 15 15 14 14 14 13
5 5 5 5 5 4 4 4 4 3 3 3 4 3 3 3 2 1 1 1 1 2 2 3 3 4 5 6 7 8 10 11 12 13 13 13 13 12 12 11 11 11 12 11 11 10 9 8 8 10 12 14 15 15 14 12 11 11 11 12 12 12 12 13 13 13 12 12 12
5 5 5 5 4 4 3 2 1 2 3 3 4 4 3 3 2 2 2 3 3 3 2 2 2 2 3 4 5 6 7 9 10 11 12 12 12 11 11 11 11 11 11 11 11 11 10 10 11 12 13 14 13 13 12 11 10 10 10 10 11 11 11 12 12 11 11 11 11
5 5 4 4 3 3 2 1 1 2 3 4 4 4 3 3 4 4 5 5 5 5 5 5 4 3 2 3 3 4 5 6 7 8 9 9 9 10 9 9 9 10 10 11 12 12 12 13 13 12 12 11 11 11 11 10 10 10 10 10 10 10 10 10 10 9 9 9 9
4 3 3 2 2 1 1 2 2 3 3 3 4 4 4 5 5 6 6 6 7 7 8 7 6 6 5 4 4 4 4 5 5 6 6 7 7 7 8 9 9 9 9 10 10 10 11 11 10 10 9 9 9 10 10 10 9 9 9 9 9 8 8 8 8 7 7 6 5
2 2 1 1 1 1 2 3 3 4 4 4 4 5 6 6 7 7 7 8 9 9 9 9 9 8 8 7 6 6 6 6 6 6 6 7 7 8 8 8 8 8 7 6 6 6 6 7 8 8 7 7 8 8 8 8 8 8 8 8 7 7 6 6 5 4 4 3 2
2 1 0 1 2 2 3 4 4 4 4 5 5 6 7 7 8 8 8 9 9 9 9 9 9 8 8 8 8 8 9 9 9 9 9 9 8 7 5 3 4 6 7 5 4 4 5 6 7 7 6 6 6 6 6 6 7 7 7 7 6 5 4 4 3 2 1 0 1
1 0 1 2 2 3 4 4 4 4 4 5 6 6 7 7 7 7 7 7 7 7 7 7 7 7 7 7 7 7 8 8 8 8 8 7 6 5 5 5 5 5 5 5 4 5 5 5 6 6 6 6 6 5 5 5 6 6 6 6 5 4 3 3 2 1 1 1 2
1 1 2 2 2 3 3 4 4 4 4 4 5 6 6 6 6 6 6 6 6 6 6 7 7 7 6 6 7 6 6 5 3 2 1 1 1 2 2 3 3 3 3 3 3 3 3 3 4 4 5 5 5 4 4 3 4 4 4 3 2 2 1 1 1 2 3 4 4
1 1 2 2 2 2 2 3 3 3 3 4 4 5 5 4 4 5 6 6 6 6 6 8 8 8 8 8 8 8 8 7 7 5 4 4 3 4 4 4 3 3 3 4 4 4 3 2 3 3 4 3 2 1 1 0 1 2 3 3 3 2 3 3 4 5 5 6 6
2 2 2 1 1 1 1 2 2 3 3 4 4 4 4 3 4 4 5 4 4 5 6 7 8 8 8 8 9 9 9 9 9 8 7 7 6 6 5 5 4 3 3 3 4 3 3 2 2 2 3 2 2 3 3 2 3 4 5 5 5 4 5 6 6 5 5 5 5
2 2 2 1 1 1 1 1 2 2 3 3 3 3 3 3 4 3 3 2 3 4 5 6 6 6 7 7 8 8 8 8 8 8 8 8 7 6 6 5 5 4 4 3 3 3 2 1 1 1 2 2 2 2 3 3 4 5 5 5 5 6 6 6 4 3 2 2 2
1 1 1 1 1 1 1 1 1 2 3 3 3 3 3 3 3 3 2 3 3 4 5 5 5 5 5 6 6 6 6 6 6 6 6 6 5 5 4 4 3 3 3 2 2 1 1 2 2 2 2 3 3 4 4 4 5 5 5 5 5 5 5 3 2 2 2 2 3
2 2 1 1 1 1 1 0 1 2 3 3 3 4 4 4 4 3 4 4 5 5 5 5 4 4 5 5 5 5 5 5 4 4 4 4 3 3 2 2 2 2 1 1 1 2 2 3 3 3 4 5 5 5 5 4 4 4 4 3 3 3 3 4 4 4 3 3 3
2 2 1 1 1 1 1 1 1 2 3 3 4 4 4 4 4 4 5 6 6 6 5 5 5 5 5 5 5 5 4 4 4 4 3 3 2 2 1 2 2 2 2 2 3 3 3 4 4 4 4 5 5 4 4 3 3 3 3 3 3 4 5 5 5 4 3 2 3
2 2 1 1 1 1 1 1 2 3 3 4 4 4 4 5 5 5 5 6 6 6 5 6 5 5 4 4 4 4 4 4 3 3 3 3 2 2 2 2 3 3 4 4 4 4 4 4 4 4 3 3 4 4 4 4 5 5 5 5 5 5 6 6 5 4 3 3 4
1 1 0 0 1 1 2 2 3 3 4 4 4 5 5 5 4 4 5 5 5 5 5 6 5 4 4 3 3 3 3 3 3 2 3 3 3 3 3 4 4 4 4 4 4 4 4 4 4 4 4 4 4 4 5 5 5 5 6 5 5 6 6 6 6 5 5 5 6
2 2 2 3 3 3 3 4 4 4 4 4 5 5 5 4 4 4 4 4 4 4 4 4 4 4 3 2 2 3 3 3 3 3 3 3 3 3 3 3 3 3 3 2 2 3 3 4 4 3 2 3 3 4 5 5 6 6 7 7 7 8 8 7 7 6 6 7 7
2 3 4 5 5 5 5 4 4 5 5 5 5 5 4 4 4 3 3 3 3 2 2 3 3 2 2 2 2 2 2 2 3 3 3 3 3 3 3 2 2 2 2 2 2 3 4 5 4 3 3 4 5 6 6 6 6 7 7 8 8 9 9 9 8 8 8 9 9
3 4 5 5 5 5 4 4 4 4 5 5 5 5 4 3 3 2 2 3 2 1 1 1 2 2 1 1 1 1 2 2 3 3 3 3 4 4 5 5 5 4 4 4 5 5 6 6 6 5 6 7 7 7 7 7 7 8 8 9 9 10 10 10 10 10 10 10 10
4 4 4 4 4 3 3 3 3 4 4 4 4 4 3 3 2 2 2 3 3 2 2 2 3 3 3 3 3 4 4 3 4 5 6 6 8 9 9 9 9 8 8 8 8 8 8 8 8 8 8 8 8 8 8 8 8 9 9 10 10 10 10 10 10 11 11 10 11
3 3 2 2 2 2 2 2 3 3 3 3 3 3 3 3 3 3 3 4 4 4 3 3 3 4 5 6 6 6 6 6 7 8 10 11 12 13 12 11 11 12 11 11 10 9 9 10 9 10 10 10 10 10 9 9 10 10 10 10 10 10 10 11 10 10 11 11 11
1 0 1 1 1 1 1 1 1 2 2 2 2 3 4 5 5 5 5 5 5 5 5 6 7 7 8 8 8 8 8 10 11 12 13 14 15 14 13 12 13 13 14 13 12 11 11 11 11 10 10 11 11 11 11 11 11 11 11 11 11 11 11 11 11 11 11 11 12
2 2 1 1 2 2 1 1 1 2 2 3 4 5 6 7 7 7 7 7 7 8 8 9 10 10 10 10 10 11 12 14 15 16 16 16 16 15 15 14 14 15 15 14 13 12 12 12 12 12 11 12 12 12 12 12 12 12 12 12 12 12 12 12 11 11 11 11 11
3 2 2 2 3 3 3 3 3 4 5 6 6 7 8 8 8 8 9 10 10 10 10 11 12 12 13 13 14 14 15 16 17 17 17 17 17 17 17 17 16 16 15 14 13 13 13 13 13 12 12 12 13 13 13 13 13 12 12 12 12 12 12 11 11 10 10 9 9
4 3 3 2 2 3 3 4 5 6 6 7 7 8 8 9 9 10 11 12 13 13 13 14 15 15 15 16 16 16 17 16 16 16 16 16 16 16 17 17 16 16 14 13 13 12 13 13 13 12 12 12 12 12 13 14 14 14 14 13 12 11 11 10 9 8 7 6 6
4 3 2 2 2 3 4 5 6 7 8 8 8 8 8 9 11 12 14 14 15 15 16 16 16 16 16 16 16 16 16 16 15 15 15 15 16 16 16 16 15 15 14 13 12 12 12 12 13 13 12 11 11 12 13 14 14 14 13 12 11 10 9 8 6 5 4 4 3
4 3 2 1 2 4 5 6 8 9 9 8 8 8 9 10 12 14 15 15 15 16 16 16 16 16 16 16 16 16 16 16 16 16 16 16 16 16 16 16 15 14 13 12 12 12 12 12 13 13 12 11 11 12 13 14 13 12 11 10 9 8 7 6 5 4 3 3 2
4 3 2 2 3 4 5 7 8 9 8 8 8 8 10 11 13 14 14 14 15 15 15 15 15 15 16 16 16 16 16 16 16 16 16 17 17 16 16 16 15 14 13 12 12 12 12 12 12 12 12 12 12 12 13 13 12 11 9 9 8 7 6 5 4 4 3 2 2
3 3 4 4 4 5 6 7 8 7 7 8 8 9 11 12 13 13 13 14 14 14 14 14 14 15 15 15 15 16 16 16 16 16 16 16 16 16 15 15 15 14 13 13 13 12 12 11 12 12 12 12 12 12 12 12 10 9 8 8 7 6 5 5 4 4 3 3 2
4 4 5 6 7 7 8 8 8 8 8 8 9 10 11 12 12 13 13 13 13 13 12 12 12 13 13 14 14 15 15 15 15 15 15 15 15 15 15 15 14 14 13 13 12 12 11 11 11 12 12 11 11 11 10 10 9 8 7 7 6 5 5 4 4 4 4 3 3
5 5 6 8 9 9 10 10 9 9 9 10 10 10 11 11 12 12 12 11 11 11 10 10 11 12 12 13 13 14 14 14 14 14 14 15 15 15 15 15 15 14 13 12 11 11 10 10 11 11 11 10 9 9 8 8 7 7 6 6 5 5 5 4 4 4 4 4 3
6 7 8 9 10 10 11 11 10 11 11 11 11 10 11 11 11 11 11 10 10 10 10 11 12 12 13 13 13 13 13 13 14 14 14 15 15 15 16 15 14 13 11 11 10 10 10 9 10 10 9 9 8 8 7 7 7 6 6 6 6 5 4 4 4 3 3 3 3
7 8 9 10 11 11 11 11 11 12 12 11 11 10 10 10 10 10 9 9 9 10 10 11 12 12 13 13 13 14 14 13 14 14 15 15 15 15 15 15 13 12 10 10 10 10 9 9 9 9 8 8 7 7 6 6 6 6 6 6 6 5 5 4 3 3 3 2 2
8 9 10 11 11 12 12 12 12 12 12 11 11 10 9 9 9 9 8 8 9 9 9 10 11 12 12 13 13 13 14 14 14 14 14 14 14 15 15 14 12 11 10 10 10 10 9 9 9 8 8 8 7 7 6 6 7 7 7 7 7 6 6 6 5 5 4 4 3
9 10 11 11 12 12 13 13 12 12 11 11 10 9 8 8 8 8 7 7 8 9 9 10 10 11 12 12 12 12 13 13 13 13 13 13 13 14 15 14 13 12 11 10 10 10 10 9 9 8 8 8 7 7 7 7 7 7 8 8 8 8 8 8 8 7 6 6 5
9 10 11 12 13 13 13 13 12 11 11 10 9 8 8 7 7 7 7 6 7 8 9 9 10 11 12 12 12 12 11 11 12 12 13 13 13 14 14 14 14 13 11 10 10 10 10 10 9 8 8 7 7 7 7 7 7 7 7 7 8 8 8 9 8 8 8 7 7
9 11 12 12 13 13 13 12 11 11 10 9 8 7 7 7 7 6 6 6 6 7 9 10 10 11 11 11 11 12 11 12 12 13 13 14 14 13 13 13 13 13 11 10 9 9 9 9 8 7 7 7 6 6 6 6 6 6 6 7 7 7 8 8 8 8 7 7 7
9 10 11 11 12 12 12 11 10 9 8 8 8 7 6 6 5 5 5 5 6 8 9 10 11 11 11 12 12 13 13 13 13 14 14 14 13 13 12 12 12 11 10 8 7 7 7 7 6 6 6 6 6 5 5 5 5 5 5 5 5 6 6 6 7 7 7 6 6
8 9 10 10 10 10 10 10 9 8 7 7 7 7 6 6 5 5 5 6 7 9 10 11 12 12 13 13 13 14 14 14 14 14 13 13 13 12 11 10 10 9 8 7 5 5 5 5 5 5 5 5 6 5 5 4 4 4 4 4 4 4 4 5 5 5 6 5 5
8 9 9 10 10 9 9 9 8 7 7 7 7 8 8 7 6 6 7 8 9 10 11 12 13 13 14 14 14 14 14 14 13 13 13 12 12 11 10 9 9 9 8 7 6 5 4 3 3 4 5 5 5 5 4 4 3 3 3 3 3 3 3 3 4 4 4 4 4
Wind_Direction
329 334 337 337 331 322 310 298 288 279 270 259 246 238 240 245 249 253 254 252 249 248 246 241 234 228 222 218 215 214 215 216 217 218 218 219 222 225 228 229 230 231 233 234 232 228 225 229 235 237 237 236 239 243 246 247 246 247 248 248 248 247 245 244 243 243 243 243 244
322 326 330 333 333 329 318 303 286 266 244 224 210 205 204 209 209 218 223 204 206 216 220 214 212 209 208 208 209 210 212 214 216 217 219 220 223 226 228 228 230 230 228 223 217 209 204 206 215 225 230 232 234 236 238 236 234 235 237 238 237 236 234 233 234 235 235 236 236
315 318 321 324 327 327 325 312 270 220 197 184 184 182 179 176 164 131 103 95 97 99 103 112 135 165 184 193 198 202 206 209 214 217 220 223 226 228 230 230 229 224 216 206 197 191 189 192 199 209 217 222 223 225 224 222 220 220 221 221 221 222 223 226 229 232 234 234 234
307 310 312 316 323 331 345 21 134 158 160 160 162 160 155 145 133 120 108 98 92 87 85 85 92 107 130 154 175 185 190 197 205 211 216 220 223 224 222 219 215 210 202 194 189 186 187 190 194 201 208 211 212 211 209 206 204 204 205 207 209 212 217 222 228 233 237 238 237
305 306 307 306 314 348 76 97 114 126 137 147 147 140 132 126 119 113 107 99 91 86 85 85 88 92 100 114 134 149 158 165 174 182 191 199 202 200 196 193 192 193 192 191 189 190 191 193 188 186 189 193 193 192 192 192 192 194 196 199 203 207 212 217 221 225 230 233 234
323 323 316 285 218 156 133 124 118 119 124 131 128 122 116 112 110 107 102 97 94 92 90 88 88 90 94 102 111 118 122 125 131 139 151 160 163 164 167 169 168 166 165 171 182 189 186 176 163 161 170 179 180 181 183 186 187 189 191 193 196 197 200 201 203 205 210 218 225
333 334 273 192 180 163 147 136 128 125 124 122 116 109 105 102 100 100 100 100 101 98 92 88 85 84 87 94 100 104 108 110 113 116 117 119 120 124 139 182 147 125 120 125 135 145 148 145 146 151 161 168 169 169 171 177 180 180 178 174 174 171 166 155 147 143 141 8 336
318 247 193 185 179 163 149 138 133 130 126 118 109 102 97 94 93 93 95 95 91 86 79 75 69 66 68 73 79 85 91 98 102 103 100 95 89 84 81 83 88 93 97 104 113 121 128 134 140 145 149 152 151 149 149 157 164 166 163 155 152 147 137 118 101 78 346 314 307
240 202 193 190 180 165 148 137 132 126 121 114 105 99 93 89 85 81 76 69 61 58 55 53 48 44 41 42 46 49 50 50 49 33 349 337 24 53 62 61 60 73 89 101 109 116 122 130 139 143 145 144 141 137 136 141 152 161 166 166 167 168 165 163 217 247 254 255 253
210 196 188 186 177 162 144 133 127 122 114 109 102 98 93 87 78 67 57 51 45 43 42 40 36 33 32 31 30 29 28 28 33 42 54 63 70 76 77 71 64 70 85 99 108 114 124 136 142 145 146 148 149 152 168 206 239 256 260 255 247 233 221 221 220 223 228 232 230
211 202 195 186 174 159 139 124 116 114 106 100 96 94 91 85 71 60 51 41 31 33 35 31 29 29 31 33 33 32 31 31 36 45 56 63 65 67 70 75 75 79 89 100 104 109 116 128 134 139 148 173 247 262 262 267 275 276 271 262 243 215 200 206 207 208 211 215 210
212 210 211 210 203 198 170 130 107 99 93 88 83 82 80 75 66 58 46 23 18 23 26 23 21 27 32 32 35 38 40 43 46 53 61 69 71 72 73 76 81 88 95 97 93 91 95 109 127 148 154 172 215 222 217 226 241 244 240 231 216 199 192 198 198 192 183 176 138
200 205 209 216 221 221 201 140 99 84 77 73 66 60 57 57 51 41 21 6 12 19 22 21 20 29 39 42 44 48 52 56 57 61 68 76 80 81 80 80 82 88 91 90 88 100 118 127 135 152 162 165 170 179 192 206 215 217 214 207 199 190 182 165 123 90 76 67 75
195 196 202 214 227 236 239 176 68 60 59 59 52 44 41 43 37 24 13 12 16 23 27 31 37 49 57 61 59 60 61 61 59 59 64 72 79 83 85 95 103 107 110 118 145 153 150 147 156 167 175 176 178 186 196 203 203 200 195 189 180 159 124 92 73 59 50 50 64
197 199 206 223 240 253 271 339 26 38 44 49 42 37 38 42 37 28 21 22 24 27 33 44 56 66 73 74 68 60 55 55 48 44 44 51 56 69 86 107 117 122 125 127 137 141 142 144 151 159 167 169 171 173 173 165 149 132 115 101 92 89 87 82 73 62 54 60 79
191 195 212 236 257 282 316 354 14 28 35 42 37 38 45 52 49 41 35 34 32 34 41 50 59 67 76 79 67 52 40 36 32 30 35 44 53 65 84 99 102 104 108 116 127 133 133 127 122 121 125 130 131 128 124 118 110 103 95 87 84 85 88 87 84 80 79 82 89
157 136 119 331 319 341 356 7 15 23 30 36 36 44 53 60 55 47 43 41 40 44 49 52 57 65 71 69 56 39 27 23 24 34 49 57 62 70 80 90 93 96 101 107 112 117 116 108 98 93 96 104 106 107 106 103 100 96 93 90 92 93 93 91 89 87 86 87 89
86 70 54 41 28 19 16 19 18 20 24 27 30 38 46 50 42 39 40 41 46 52 58 60 67 74 71 56 36 24 20 23 30 46 59 62 61 64 73 82 89 93 94 97 95 94 90 83 71 64 70 90 97 101 101 101 99 98 97 97 98 98 96 93 90 88 86 86 86
25 34 37 37 32 26 22 19 18 17 16 16 15 20 31 41 33 34 49 57 52 50 60 76 93 97 75 46 24 13 11 13 21 36 48 49 49 55 64 72 72 65 57 53 68 83 86 81 70 58 60 77 89 95 99 103 104 104 104 104 103 101 98 95 93 90 88 86 85
333 350 6 16 16 15 15 14 14 13 11 8 6 8 21 40 42 55 83 91 84 67 64 96 122 126 118 93 83 49 32 16 20 33 45 51 62 69 73 73 72 69 68 72 82 92 95 94 91 87 85 89 95 100 104 105 105 105 105 105 104 102 100 97 94 91 88 87 85
309 320 329 337 346 354 2 12 15 12 10 9 11 21 34 51 70 87 98 106 109 112 113 113 115 113 111 111 105 89 71 55 60 69 76 81 82 80 78 78 79 79 78 80 86 93 96 97 97 96 96 98 100 102 102 102 103 103 104 104 104 104 102 100 97 93 90 87 83
285 296 314 328 343 357 11 22 20 14 11 14 28 49 69 85 101 109 112 112 113 111 108 103 99 96 95 94 92 89 87 87 88 90 91 92 89 85 82 82 83 83 82 81 84 90 95 97 98 98 99 100 101 100 99 99 100 100 100 101 101 102 101 99 98 96 93 89 82
212 139 59 28 31 36 38 40 29 23 23 36 65 89 100 106 108 110 109 106 101 95 90 89 90 92 93 92 93 97 101 101 98 94 92 90 87 86 85 85 86 84 82 81 83 88 92 95 97 98 99 100 100 98 97 97 97 97 97 97 97 95 92 90 88 87 86 83 81
142 135 136 136 135 132 130 130 110 90 82 86 94 100 102 102 101 100 99 97 93 88 86 88 92 95 97 98 99 101 101 98 94 91 87 84 83 81 80 80 79 78 77 77 80 84 88 90 92 93 95 97 97 96 94 93 92 93 93 93 92 90 86 82 76 72 70 71 72
160 163 159 145 140 139 136 132 122 112 104 99 98 98 98 98 98 98 97 96 94 93 94 98 101 102 102 100 98 95 92 89 87 85 83 81 79 78 76 74 73 72 72 73 76 79 82 83 84 86 88 92 95 95 94 91 88 87 86 87 87 86 85 81 74 67 63 63 64
169 160 145 132 137 140 134 127 120 114 110 105 102 99 97 99 101 103 102 101 100 102 104 105 105 105 103 101 98 94 91 89 88 88 87 87 86 84 83 81 79 78 77 78 79 78 78 78 79 81 82 86 91 94 93 89 84 80 78 78 80 82 83 82 80 76 70 67 66
162 151 137 141 148 139 130 126 122 118 114 110 106 104 104 107 109 109 108 108 108 109 110 109 108 108 108 107 104 102 100 99 99 99 99 98 96 94 92 90 87 86 85 85 84 82 79 77 78 80 81 83 88 92 92 89 84 80 78 77 78 80 81 83 85 86 85 80 78
160 150 140 151 143 131 127 125 122 119 116 113 112 113 115 117 116 114 113 113 114 114 113 112 113 114 113 111 108 106 105 105 104 104 103 102 100 96 94 91 88 87 87 86 85 83 80 78 79 80 82 83 88 92 93 91 88 86 84 83 84 85 86 89 92 93 93 89 87
165 165 165 160 144 134 131 128 125 122 122 123 124 125 125 123 120 118 117 117 116 115 113 114 117 117 114 110 108 107 106 105 105 104 104 102 99 96 93 91 88 86 86 85 84 83 82 82 82 83 85 86 87 89 89 90 90 90 90 90 89 90 91 93 95 92 88 80 77
181 182 177 167 157 149 143 139 135 134 134 135 135 132 129 126 124 122 120 119 117 117 118 120 121 118 115 113 112 110 108 107 107 106 104 102 99 96 93 91 88 85 83 82 82 84 85 87 88 89 88 87 85 84 84 86 88 90 90 91 91 92 93 92 91 86 79 72 67
187 182 172 161 153 148 147 146 147 147 146 143 139 135 131 128 125 123 123 122 122 123 126 127 124 121 119 120 118 115 113 111 111 109 106 103 99 97 94 91 87 84 82 81 83 85 87 88 89 89 88 85 84 83 85 87 88 88 90 90 92 92 90 89 86 83 79 74 70
184 177 167 156 150 148 149 150 150 150 149 145 140 136 133 130 128 126 126 127 128 129 129 127 124 123 124 123 121 117 114 112 109 108 107 104 100 97 93 88 85 82 82 84 86 88 87 86 85 86 87 88 90 93 96 97 97 95 95 95 94 92 90 88 86 85 84 82 79
179 173 164 156 151 150 151 151 151 149 147 144 140 137 135 133 132 131 131 134 135 133 131 129 127 124 122 120 117 114 112 110 108 107 105 103 99 95 91 87 85 84 86 89 91 92 91 88 87 88 91 93 96 99 101 101 102 102 102 101 98 95 93 92 91 90 90 88 83
176 170 164 157 153 152 152 152 151 149 146 142 139 137 136 136 135 135 137 140 142 142 140 138 134 129 126 123 120 117 114 113 112 110 107 104 101 98 94 92 91 91 93 96 97 97 95 92 92 93 94 96 96 97 98 100 101 102 101 98 96 92 87 83 82 80 80 79 77
175 169 164 160 157 154 153 152 151 149 145 141 138 137 138 139 140 141 144 147 150 150 148 144 137 132 129 128 126 124 121 118 116 113 110 107 105 102 101 99 98 97 96 98 98 96 93 90 90 91 92 94 96 98 100 102 101 98 95 92 87 82 76 71 67 65 64 64 63
177 171 166 162 159 157 155 154 153 150 146 143 140 139 140 145 148 149 151 154 155 153 149 142 136 132 131 130 128 126 123 120 115 112 109 108 107 106 106 104 102 98 94 91 90 89 87 86 87 88 91 94 97 100 101 100 97 94 90 85 79 73 68 64 61 59 59 61 61
182 175 170 165 161 159 158 158 156 154 150 146 142 141 146 154 158 160 162 163 159 153 146 141 138 137 135 131 127 122 117 114 111 110 110 110 110 109 108 106 104 100 95 89 85 84 84 85 87 89 91 95 97 97 97 94 91 87 82 76 71 66 61 57 56 55 57 61 63
188 181 175 169 165 163 163 163 162 159 154 148 144 146 153 162 168 172 175 173 161 149 142 139 138 136 133 128 122 118 114 113 114 115 115 114 112 110 108 106 104 102 99 94 87 86 86 85 86 88 88 88 88 86 83 81 79 77 73 68 63 59 55 52 51 52 55 61 65
195 188 181 175 171 169 169 168 166 162 156 151 148 152 160 169 175 180 182 173 157 145 139 137 135 133 129 126 123 121 119 120 120 120 119 116 112 108 105 103 102 102 103 102 99 96 93 85 81 79 77 74 69 66 63 63 66 67 65 61 56 53 49 47 46 46 50 58 67
198 192 187 183 180 177 175 171 165 161 158 157 158 162 167 172 177 178 172 157 147 141 137 134 131 129 127 126 125 125 125 126 126 124 121 117 113 109 106 105 105 106 108 112 114 113 107 93 74 66 65 62 58 53 49 46 48 55 58 56 51 47 42 38 36 37 41 48 62
197 195 193 191 189 186 181 174 166 162 164 166 169 171 173 173 174 168 158 146 140 136 133 131 129 128 127 127 129 130 131 131 131 128 125 121 117 115 114 115 115 116 118 122 126 129 126 112 78 62 59 57 52 47 39 32 29 35 42 42 38 34 30 26 23 24 28 34 47
Height
804 804 803 803 802 802 801 801 800 800 799 799 798 798 797 797 797 797 796 796 796 796 795 795 795 795 794 794 794 794 795 795 796 796 797 797 797 797 798 798 799 800 801 802 802 802 802 803 804 805 806 806 807 807 808 808 809 810 811 811 812 812 812 813 813 814 814 814 814
804 803 803 803 802 802 801 801 800 799 799 798 798 798 797 797 797 797 796 796 796 795 795 795 795 795 794 794 794 794 794 795 795 795 796 796 797 797 797 798 798 799 800 801 801 802 802 802 803 804 805 806 806 807 807 808 809 809 810 810 811 811 812 812 812 813 813 813 812
804 803 803 802 802 802 801 800 800 799 799 798 798 797 797 797 797 797 796 796 796 796 795 795 795 795 795 794 794 794 794 794 795 795 795 796 796 797 797 797 798 798 799 799 800 801 801 802 802 803 804 804 805 806 807 807 808 808 809 809 810 810 811 811 811 811 812 812 812
804 803 803 802 802 802 801 800 800 799 799 798 798 797 797 797 797 797 797 796 796 796 796 796 795 795 795 795 795 794 794 794 794 795 795 796 796 796 797 797 797 798 798 799 799 800 800 801 802 802 803 804 805 805 806 807 807 808 808 808 809 809 809 810 810 810 810 810 811
803 803 802 802 802 802 801 801 800 799 799 799 798 798 797 797 797 797 797 797 797 797 796 796 796 796 796 795 795 795 795 795 795 795 795 796 796 796 797 797 797 798 798 798 799 800 800 800 801 802 803 804 804 805 805 806 806 807 807 808 808 808 808 808 808 809 809 809 810
803 803 802 802 802 801 801 801 800 800 799 799 798 798 798 797 797 797 797 797 797 797 797 797 797 797 796 796 796 795 795 795 795 795 796 796 796 796 797 797 797 797 798 798 800 801 801 801 801 802 803 804 805 805 805 805 805 806 806 807 807 807 807 807 807 808 808 808 809
803 803 802 802 802 801 801 801 800 800 799 799 799 798 798 798 798 798 797 797 798 798 798 797 797 797 797 797 797 796 796 796 796 796 796 797 797 797 797 798 797 798 798 799 800 801 802 801 801 802 803 804 805 805 805 805 805 805 805 806 806 806 807 807 807 807 808 808 808
803 803 802 802 802 801 801 801 800 800 799 799 799 798 798 798 798 798 798 798 798 798 798 798 798 798 798 797 797 797 797 797 797 797 797 797 797 798 798 799 798 799 799 800 801 801 801 801 801 802 803 804 805 805 805 804 804 804 804 805 806 806 807 807 807 807 807 808 808
803 803 803 802 802 802 801 801 800 800 800 799 799 799 799 799 798 798 798 798 798 798 798 798 798 798 798 797 797 798 798 798 798 798 798 798 798 799 799 799 799 799 800 801 801 801 802 802 802 802 803 804 804 804 804 804 804 804 804 805 806 806 807 807 807 807 807 807 808
803 803 803 802 802 802 801 801 801 800 800 800 799 799 799 799 799 798 798 798 798 798 798 798 798 798 798 797 797 797 798 798 798 798 798 799 799 799 799 799 800 800 801 801 801 801 802 802 802 802 803 804 804 804 804 804 804 804 804 805 805 806 806 807 807 807 807 807 807
803 803 803 802 802 802 802 801 801 800 800 800 800 799 799 799 799 799 799 799 799 798 798 798 798 798 798 798 797 797 797 797 798 798 798 798 799 799 799 800 800 800 801 801 801 802 802 802 802 803 803 803 804 804 804 804 804 804 804 804 805 805 805 806 806 806 806 806 806
803 803 803 802 802 802 802 801 801 801 800 800 800 800 799 799 799 799 799 799 799 799 799 799 799 798 798 798 798 798 798 798 798 798 798 798 799 799 799 800 800 800 801 801 801 802 802 802 802 802 803 803 803 803 803 803 803 803 803 804 804 804 805 805 805 806 806 806 806
803 803 802 802 802 802 802 801 801 801 800 800 800 800 800 799 799 800 800 799 799 799 799 799 799 799 799 798 798 798 798 798 798 799 799 799 799 799 799 799 800 800 800 801 801 801 802 802 802 802 802 802 802 802 802 802 802 803 803 803 804 804 804 805 805 805 806 806 806
803 803 802 802 802 802 802 801 801 801 801 800 800 800 800 800 800 800 800 799 799 799 799 799 799 799 799 799 799 799 799 799 799 799 799 799 799 799 799 799 799 800 800 800 801 801 801 801 801 802 802 802 802 802 802 802 802 803 803 803 804 804 805 805 805 806 806 806 806
802 802 802 802 802 802 801 801 801 801 801 801 800 800 800 800 800 800 800 799 799 799 799 799 799 799 799 799 799 799 799 799 799 799 799 799 799 799 799 799 799 799 800 800 800 801 801 801 801 801 801 801 801 802 802 802 802 803 803 804 804 805 805 805 806 806 806 806 806
802 802 802 802 802 801 801 801 801 801 801 801 801 801 800 800 800 800 800 800 800 799 799 799 799 799 799 799 799 799 799 799 799 799 799 799 799 799 799 799 799 800 800 800 800 801 801 801 801 801 802 802 802 802 802 802 803 803 804 804 805 805 805 806 806 806 806 806 806
802 802 802 802 802 801 801 801 801 801 801 801 801 801 800 800 800 800 800 800 800 800 799 799 799 799 799 799 799 799 799 799 799 799 799 799 799 799 799 799 800 800 800 800 800 801 801 801 802 802 802 802 802 802 803 803 803 804 804 804 805 805 806 806 806 806 806 806 806
802 802 802 802 802 801 801 801 801 801 801 801 801 801 800 800 800 800 800 800 800 800 800 799 799 800 800 800 799 799 799 799 799 799 799 799 799 800 800 800 800 800 800 801 801 801 802 802 802 802 802 802 802 803 803 803 804 804 804 805 805 805 806 806 806 806 807 807 807
802 802 802 802 802 802 801 801 801 801 801 801 800 800 800 800 800 800 800 800 800 800 800 800 800 800 800 800 800 799 799 799 799 799 799 800 800 800 800 800 801 801 801 801 801 802 802 802 802 802 803 803 803 803 803 804 804 804 804 805 805 805 806 806 806 807 807 807 807
802 802 802 802 802 802 802 801 801 801 801 801 800 800 800 800 800 800 800 800 800 800 800 800 799 799 799 799 799 799 799 800 800 800 800 800 800 800 801 801 801 801 801 801 802 802 802 802 802 803 803 803 803 803 804 804 804 804 804 805 805 806 806 806 807 807 807 807 807
802 802 802 802 802 802 802 801 801 801 801 801 800 800 800 800 800 800 800 800 800 800 800 800 800 799 799 799 799 799 800 800 800 800 800 801 801 801 801 801 801 801 801 801 802 802 802 802 802 803 803 803 803 803 804 804 804 804 805 805 806 806 806 807 807 807 807 807 808
802 802 802 802 802 802 802 801 801 801 801 801 800 800 800 800 800 800 800 800 800 800 800 800 800 800 800 800 800 800 800 801 801 801 801 801 801 801 801 801 801 801 801 801 802 802 802 802 803 803 803 803 804 804 804 804 805 805 805 806 806 807 807 807 807 807 808 808 808
802 802 802 802 802 802 802 802 801 801 801 801 800 800 800 800 800 800 800 800 800 800 800 800 800 800 800 800 800 800 801 801 801 801 801 801 801 801 802 802 802 802 802 802 802 802 802 803 803 803 804 804 804 804 805 805 805 806 806 806 807 807 807 808 808 808 809 809 809
802 802 802 802 802 802 802 801 801 801 801 801 801 801 800 800 800 800 800 800 800 800 800 800 800 800 801 801 801 801 801 801 802 802 802 802 802 802 802 802 802 802 802 802 803 803 803 803 804 804 804 804 805 805 805 806 806 806 807 807 807 808 808 809 809 809 810 810 810
802 802 802 802 802 802 802 801 801 801 801 801 801 801 801 801 801 800 800 800 800 800 800 801 801 801 801 802 802 802 802 802 802 802 803 803 803 803 803 803 803 803 804 804 804 804 804 804 804 805 805 805 805 806 806 806 807 807 807 808 808 809 809 810 810 810 811 811 811
802 802 802 802 802 802 802 801 801 801 801 801 801 801 801 801 801 801 801 801 801 801 801 801 802 802 802 802 802 803 803 803 803 804 804 804 805 805 805 805 805 805 805 805 805 805 805 805 805 805 806 806 806 806 807 807 808 808 808 809 809 810 810 810 811 811 812 812 812
802 802 802 802 802 802 802 802 802 801 801 801 801 801 801 802 801 801 801 801 802 802 802 802 802 802 803 803 803 804 804 804 805 805 805 805 806 806 806 806 806 806 806 807 807 806 806 806 806 806 806 807 807 807 807 808 809 809 810 810 810 811 811 811 812 812 812 812 812
802 802 802 802 802 802 802 802 802 802 802 802 802 802 802 802 802 802 802 802 802 802 802 802 803 803 803 804 804 804 805 805 806 806 806 806 806 806 806 806 806 807 807 807 807 807 807 806 806 807 807 807 808 808 808 809 810 810 811 811 811 812 812 812 812 812 812 812 812
802 802 802 802 802 802 802 802 802 802 802 802 802 802 802 802 802 802 802 802 802 803 803 803 803 804 804 804 805 805 806 806 807 807 807 807 807 807 807 807 807 807 807 807 807 807 807 807 807 808 808 809 809 809 809 810 810 811 811 811 812 812 812 812 812 812 812 812 812
802 802 802 802 802 802 802 802 802 802 802 802 802 802 802 802 803 803 803 803 803 803 804 804 804 804 805 805 806 806 807 807 807 807 807 807 807 807 807 807 807 807 807 807 807 807 808 808 809 809 809 810 810 810 810 811 811 812 812 812 812 812 812 812 812 812 812 812 812
802 802 802 802 802 802 802 802 802 802 802 803 803 803 803 803 803 803 804 804 804 804 805 805 805 805 806 806 807 807 807 807 807 807 807 807 807 807 807 807 807 807 808 808 808 809 809 810 810 810 810 810 811 811 811 812 812 812 812 812 812 813 813 813 813 813 813 813 812
802 802 802 802 802 802 802 803 803 803 803 803 803 804 804 804 804 804 804 805 805 805 805 806 806 806 807 807 807 807 807 808 808 808 808 808 808 808 808 807 808 808 809 809 810 811 811 811 811 811 811 811 811 812 812 812 812 812 813 813 813 813 813 813 813 813 813 813 813
802 802 802 802 803 803 803 803 803 803 804 804 804 804 804 805 805 805 805 805 806 806 806 806 807 807 807 807 807 808 808 808 808 808 808 808 808 808 808 808 808 809 810 811 811 812 812 812 812 812 812 812 812 812 812 812 813 813 813 813 813 813 813 813 813 813 813 813 813
802 803 803 803 803 803 803 804 804 804 804 804 805 805 805 805 805 806 806 806 806 806 807 807 807 807 807 807 807 808 808 808 808 808 808 808 808 808 808 809 810 811 812 812 812 812 812 812 812 812 812 812 813 813 813 813 813 813 814 814 814 814 814 814 814 814 813 813 813
803 803 803 803 804 804 804 804 804 804 805 805 805 805 805 806 806 806 806 807 807 807 807 807 807 807 807 807 808 808 808 808 808 808 808 808 808 808 809 810 811 812 812 812 812 812 812 812 812 813 813 813 813 814 814 814 814 814 814 814 814 814 814 814 814 814 814 813 813
803 803 803 804 804 804 804 804 805 805 805 805 805 806 806 806 806 807 807 807 807 807 807 807 807 807 807 808 808 808 808 808 808 808 809 809 809 810 810 811 812 813 813 813 813 813 813 813 813 813 814 814 814 814 814 814 815 815 815 815 815 815 815 815 814 814 814 814 814
803 804 804 804 804 804 804 805 805 805 805 805 806 806 806 807 807 807 807 807 807 807 807 807 807 807 808 808 808 808 808 809 809 809 809 810 810 811 811 812 812 813 813 813 813 813 814 814 814 814 815 815 815 815 815 815 815 815 815 815 815 815 815 815 815 815 814 814 814
804 804 804 804 804 804 805 805 805 805 806 806 806 807 807 807 807 807 807 807 807 807 807 807 807 808 808 808 808 808 809 809 809 810 810 811 811 812 812 812 812 813 813 814 814 814 814 815 815 815 815 815 815 816 816 816 816 816 816 816 816 816 815 815 815 815 815 814 814
804 804 804 804 804 805 805 805 805 806 806 806 807 807 807 807 807 807 807 807 807 807 807 807 807 808 808 808 808 809 809 810 810 811 811 812 812 812 813 813 813 813 814 815 815 815 815 815 816 816 816 816 816 816 816 816 816 816 816 816 816 816 816 816 816 815 815 815 815
804 804 804 804 805 805 805 805 806 806 806 807 807 807 807 808 808 808 808 808 808 808 808 807 808 808 808 809 809 809 810 810 811 811 812 812 812 813 813 813 814 814 815 815 816 816 816 816 816 816 816 816 816 816 816 816 816 816 816 816 816 816 816 816 816 816 815 815 815
804 804 804 805 805 805 806 806 806 806 807 807 807 807 808 808 808 808 808 808 808 808 808 808 808 808 809 809 810 810 810 811 812 812 812 813 813 813 814 814 814 815 815 816 816 816 816 816 816 816 816 816 816 816 816 816 816 816 816 816 816 816 816 816 816 816 815 815 815